[[{"header":{"parameterUnit":"m.s-1","parameterCategory":2,"la1":30.2992,"la2":30.254,"lo1":-89.0895,"lo2":-89.0443,"dy":0.0025,"dx":0.0025,"nx":19,"ny":19,"refTime":"2026-03-25T09:00:00:Z","depth":"0","parameterNumber":2,"parameterNumberName":"U-component_of_CURRENTS"},"data":[0,0,0,-0.1885,-0.1887,-0.1987,-0.1987,-0.2025,-0.2025,0,0,0,0,0,0,0,0,0,0,0,-0.1833,-0.1834,-0.1884,-0.1887,-0.1987,-0.1987,-0.2025,-0.2025,0,0,0,0,0,0,0,0,0,0,0,-0.1833,-0.1833,-0.1834,-0.1888,-0.1987,-0.1987,-0.2025,-0.1971,0,0,0,0,0,0,0,0,0,0,-0.1884,-0.1853,-0.1833,-0.1834,-0.1888,-0.1987,-0.1987,-0.1969,-0.1974,-0.1956,0,-0.1967,0,-0.2005,-0.2026,-0.2026,0,0,0,-0.1881,-0.1849,-0.1878,-0.1834,-0.1889,-0.1987,-0.194,-0.1972,-0.1978,-0.1962,-0.1968,-0.1971,-0.2006,-0.2026,-0.2026,-0.2038,-0.2038,0,0,-0.1876,-0.1849,-0.1875,-0.1882,-0.1908,-0.1937,-0.1943,-0.1977,-0.1975,-0.1968,-0.1973,-0.2007,-0.2026,-0.2026,-0.2038,-0.2038,0,0,0,-0.1864,-0.1845,-0.1875,-0.1879,-0.1909,-0.194,-0.1947,-0.1974,-0.1985,-0.1973,-0.2007,-0.2026,-0.2027,-0.2038,-0.2038,-0.2106,0,0,0,-0.186,-0.1839,-0.1873,-0.1858,-0.1909,-0.1957,-0.1943,-0.1982,-0.1988,-0.2007,-0.2026,-0.2027,-0.2038,-0.2038,-0.2105,-0.2166,0,0,0,-0.183,-0.1836,-0.1846,-0.1856,-0.1905,-0.1957,-0.1971,-0.1984,-0.2008,-0.2026,-0.2027,-0.2038,-0.2038,-0.2103,-0.2162,-0.2328,0,0,0,-0.1802,-0.1829,-0.1845,-0.1891,-0.1904,-0.1988,-0.1971,-0.2026,-0.2047,-0.2027,-0.2038,-0.2038,-0.2102,-0.2159,-0.2323,-0.2139,-0.2148,0,0,-0.1826,-0.1831,-0.1863,-0.1881,-0.1968,-0.1974,-0.205,-0.2064,-0.2034,-0.2019,-0.202,-0.2105,-0.2162,-0.2327,-0.214,-0.2149,0,0,0,-0.1865,-0.1881,-0.1913,-0.1965,-0.2023,-0.2081,-0.2096,-0.2094,-0.209,-0.2048,-0.2086,-0.212,-0.2223,-0.2099,-0.2106,-0.1993,-0.2038,-0.2038,-0.2038,-0.1856,-0.1905,-0.1961,-0.2024,-0.2079,-0.2148,-0.2195,-0.2184,-0.2132,-0.213,-0.216,-0.2312,-0.2173,-0.2178,-0.2062,-0.2125,-0.2125,-0.2126,-0.2126,-0.1887,-0.1915,-0.1986,-0.2049,-0.2122,-0.2176,-0.2258,-0.2253,-0.2329,-0.221,-0.2308,-0.2155,-0.2189,-0.2063,-0.213,-0.2129,-0.2129,-0.2128,-0.2128,-0.1865,-0.1884,-0.1924,-0.2011,-0.2104,-0.2188,-0.2327,-0.2374,-0.2408,-0.2487,-0.2406,-0.2401,-0.2315,-0.2546,-0.2547,-0.2548,-0.2549,-0.255,-0.2551,-0.1809,-0.1858,-0.1881,-0.1977,-0.2041,-0.2173,-0.237,-0.2485,-0.2551,-0.2497,-0.2496,-0.2319,-0.2443,-0.2455,-0.2566,-0.2563,-0.2561,-0.256,-0.2559,-0.1758,-0.1771,-0.1806,-0.1858,-0.2025,-0.2102,-0.233,-0.2448,-0.2618,-0.2603,-0.2359,-0.2523,-0.2514,-0.2503,-0.2515,-0.2638,-0.2638,-0.2638,-0.2638,-0.1697,-0.1717,-0.1738,-0.1811,-0.1958,-0.2074,-0.2093,-0.2169,-0.224,-0.2208,-0.2334,-0.2124,-0.2126,-0.2084,-0.2083,-0.2083,-0.2093,-0.2093,-0.2092,-0.1641,-0.1661,-0.1651,-0.1735,-0.1903,-0.1994,-0.1845,-0.1766,-0.1915,-0.2068,-0.2231,-0.2253,-0.1942,-0.1954,-0.1876,-0.1883,-0.1878,0,0]},{"header":{"parameterUnit":"m.s-1","parameterCategory":2,"la1":30.2992,"la2":30.254,"lo1":-89.0895,"lo2":-89.0443,"dy":0.0025,"dx":0.0025,"nx":19,"ny":19,"refTime":"2026-03-25T09:00:00:Z","depth":"0","parameterNumber":3,"parameterNumberName":"V-component_of_CURRENTS"},"data":[0,0,0,-0.0988,-0.0983,-0.066,-0.0658,-0.0272,-0.027,0,0,0,0,0,0,0,0,0,0,0,-0.1107,-0.1106,-0.0989,-0.0982,-0.066,-0.0658,-0.0273,-0.027,0,0,0,0,0,0,0,0,0,0,0,-0.1108,-0.1106,-0.1105,-0.0981,-0.066,-0.0658,-0.0274,-0.0501,0,0,0,0,0,0,0,0,0,0,-0.0806,-0.0932,-0.1107,-0.1105,-0.098,-0.0661,-0.0658,-0.0511,-0.0486,-0.0439,0,-0.0416,0,-0.0349,-0.0248,-0.0247,0,0,0,-0.0941,-0.0953,-0.0867,-0.1105,-0.0977,-0.0661,-0.0794,-0.0497,-0.0469,-0.0408,-0.041,-0.0395,-0.0342,-0.0246,-0.0245,-0.0021,-0.0021,0,0,-0.0959,-0.1034,-0.0886,-0.0851,-0.0928,-0.0804,-0.0784,-0.0479,-0.0466,-0.0409,-0.0385,-0.0336,-0.0244,-0.0242,-0.0021,-0.0021,0,0,0,-0.1038,-0.1048,-0.0967,-0.0868,-0.0815,-0.0796,-0.0773,-0.0479,-0.0454,-0.0381,-0.0331,-0.0242,-0.0238,-0.0021,-0.0021,-0.0126,0,0,0,-0.1047,-0.1096,-0.0977,-0.1016,-0.0822,-0.064,-0.078,-0.0474,-0.0437,-0.0333,-0.0242,-0.0235,-0.0021,-0.0021,-0.0123,-0.0171,0,0,0,-0.1116,-0.1102,-0.1077,-0.1021,-0.0899,-0.0644,-0.0598,-0.0464,-0.0409,-0.0247,-0.0234,-0.0021,-0.0021,-0.0121,-0.0166,-0.0126,0,0,0,-0.1185,-0.1174,-0.1079,-0.1039,-0.0903,-0.072,-0.0599,-0.0441,-0.0313,-0.024,-0.0021,-0.0021,-0.012,-0.0163,-0.0124,-0.0079,-0.0084,0,0,-0.1214,-0.1179,-0.1152,-0.106,-0.0942,-0.076,-0.0609,-0.0401,-0.0294,-0.0116,-0.0109,-0.0124,-0.0166,-0.0125,-0.0072,-0.0076,0,0,0,-0.1188,-0.1173,-0.1118,-0.1024,-0.0867,-0.0703,-0.0488,-0.0401,-0.0236,-0.0223,-0.0092,-0.0114,-0.0085,-0.0054,-0.0057,0.0182,-0.002,-0.002,-0.002,-0.1298,-0.1207,-0.1151,-0.1012,-0.0891,-0.0647,-0.0522,-0.0359,-0.0253,-0.0218,-0.0176,-0.0186,-0.0156,-0.0157,0.0087,-0.0146,-0.0146,-0.0147,-0.0147,-0.1335,-0.1293,-0.1178,-0.11,-0.0924,-0.078,-0.0529,-0.0441,-0.0279,-0.0232,-0.0198,-0.0138,-0.0167,0.0096,-0.0153,-0.0152,-0.0151,-0.0151,-0.015,-0.1395,-0.1363,-0.132,-0.1207,-0.1075,-0.0858,-0.0723,-0.0541,-0.0381,-0.0343,-0.0222,-0.0219,-0.0002,-0.03,-0.03,-0.03,-0.03,-0.0301,-0.0301,-0.1469,-0.142,-0.1412,-0.1299,-0.1242,-0.1098,-0.0825,-0.069,-0.0446,-0.0317,-0.0315,0.0035,-0.0231,-0.0242,-0.0301,-0.0301,-0.0301,-0.0301,-0.0301,-0.1496,-0.1507,-0.1502,-0.1478,-0.1359,-0.1256,-0.1021,-0.0697,-0.0528,-0.0402,0.0041,-0.0267,-0.0211,-0.0206,-0.0213,-0.0262,-0.0262,-0.0262,-0.0262,-0.1535,-0.1533,-0.1558,-0.1553,-0.1491,-0.1322,-0.1107,-0.0751,-0.0204,0.009,0.0192,0.0251,0.0239,0.0326,0.0319,0.0325,0.0415,0.0416,0.0417,-0.1539,-0.1559,-0.1588,-0.16,-0.1548,-0.1387,-0.1149,-0.072,0.0081,0.047,0.0518,0.0489,0.06,0.0562,0.0716,0.0687,0.0702,0,0]}],[{"header":{"parameterUnit":"m.s-1","parameterCategory":2,"la1":30.2992,"la2":30.254,"lo1":-89.0895,"lo2":-89.0443,"dy":0.0025,"dx":0.0025,"nx":19,"ny":19,"refTime":"2026-03-25T09:00:00:Z","depth":"2","parameterNumber":2,"parameterNumberName":"U-component_of_CURRENTS"},"data":[0,0,0,-0.1783,-0.1784,-0.1903,-0.1904,-0.2023,-0.2024,0,0,0,0,0,0,0,0,0,0,0,-0.1772,-0.1772,-0.1783,-0.1784,-0.1903,-0.1904,-0.2023,-0.2024,0,0,0,0,0,0,0,0,0,0,0,-0.1771,-0.1772,-0.1773,-0.1785,-0.1902,-0.1904,-0.2023,-0.1952,0,0,0,0,0,0,0,0,0,0,-0.1845,-0.182,-0.1772,-0.1773,-0.1785,-0.1902,-0.1904,-0.1949,-0.1956,-0.1948,0,-0.1964,0,-0.1964,-0.2027,-0.2028,0,0,0,-0.1826,-0.1815,-0.1836,-0.1773,-0.1785,-0.1902,-0.1861,-0.1954,-0.1961,-0.1957,-0.1965,-0.1969,-0.1966,-0.2028,-0.2028,-0.2106,-0.2107,0,0,-0.1819,-0.1804,-0.1831,-0.1841,-0.1811,-0.1857,-0.1864,-0.1959,-0.1969,-0.1965,-0.1971,-0.1968,-0.2028,-0.2028,-0.2106,-0.2106,0,0,0,-0.1772,-0.1799,-0.1821,-0.1837,-0.1843,-0.1859,-0.1868,-0.1967,-0.1971,-0.1973,-0.1969,-0.2028,-0.2029,-0.2105,-0.2106,-0.2153,0,0,0,-0.1771,-0.1769,-0.1818,-0.1812,-0.1841,-0.1907,-0.1873,-0.1967,-0.1976,-0.1968,-0.2028,-0.203,-0.2105,-0.2106,-0.215,-0.219,0,0,0,-0.1767,-0.1768,-0.1779,-0.1811,-0.1839,-0.1905,-0.1919,-0.197,-0.1971,-0.2028,-0.203,-0.2104,-0.2105,-0.2148,-0.2186,-0.2212,0,0,0,-0.1752,-0.1774,-0.1779,-0.1806,-0.1837,-0.1934,-0.1918,-0.1996,-0.2052,-0.2029,-0.2105,-0.2106,-0.2147,-0.2183,-0.221,-0.2028,-0.2025,0,0,-0.1769,-0.1776,-0.1792,-0.1798,-0.1886,-0.1921,-0.2024,-0.2077,-0.206,-0.2077,-0.208,-0.2151,-0.2186,-0.2212,-0.2092,-0.2087,0,0,0,-0.179,-0.1813,-0.184,-0.1889,-0.195,-0.2052,-0.2097,-0.2114,-0.2149,-0.2087,-0.2161,-0.2182,-0.2196,-0.2081,-0.2078,-0.2111,-0.2111,-0.2111,-0.2111,-0.1825,-0.1853,-0.1912,-0.1975,-0.2049,-0.2149,-0.2219,-0.2248,-0.2206,-0.2222,-0.2226,-0.2289,-0.2167,-0.2162,-0.2222,-0.2222,-0.2222,-0.2223,-0.2223,-0.1867,-0.1885,-0.1971,-0.2037,-0.2143,-0.2233,-0.2324,-0.2319,-0.2352,-0.23,-0.231,-0.2144,-0.2161,-0.2227,-0.2226,-0.2225,-0.2225,-0.2225,-0.2224,-0.1848,-0.1865,-0.1924,-0.2046,-0.2165,-0.2261,-0.2309,-0.2393,-0.2393,-0.2421,-0.2253,-0.2249,-0.2318,-0.2394,-0.2394,-0.2394,-0.2395,-0.2395,-0.2395,-0.1793,-0.1861,-0.1924,-0.2059,-0.2103,-0.219,-0.2299,-0.2291,-0.2301,-0.2307,-0.2305,-0.2347,-0.2342,-0.2328,-0.24,-0.2399,-0.2398,-0.2398,-0.2397,-0.1755,-0.1807,-0.1856,-0.1912,-0.2001,-0.1957,-0.2112,-0.2083,-0.2137,-0.2104,-0.224,-0.2242,-0.2211,-0.221,-0.2193,-0.2226,-0.2226,-0.2226,-0.2226,-0.1719,-0.1762,-0.1784,-0.1803,-0.1793,-0.1832,-0.1688,-0.1724,-0.1877,-0.1947,-0.196,-0.1861,-0.1873,-0.1818,-0.1827,-0.18,-0.1731,-0.1731,-0.173,-0.1721,-0.1714,-0.1686,-0.1709,-0.1663,-0.1593,-0.143,-0.1407,-0.1527,-0.1714,-0.1914,-0.2185,-0.2067,-0.2076,-0.2013,-0.2019,-0.1984,0,0]},{"header":{"parameterUnit":"m.s-1","parameterCategory":2,"la1":30.2992,"la2":30.254,"lo1":-89.0895,"lo2":-89.0443,"dy":0.0025,"dx":0.0025,"nx":19,"ny":19,"refTime":"2026-03-25T09:00:00:Z","depth":"2","parameterNumber":3,"parameterNumberName":"V-component_of_CURRENTS"},"data":[0,0,0,0.0186,0.0187,0.0233,0.0234,0.0362,0.0363,0,0,0,0,0,0,0,0,0,0,0,0.0177,0.0177,0.0186,0.0187,0.0233,0.0234,0.0362,0.0363,0,0,0,0,0,0,0,0,0,0,0,0.0177,0.0177,0.0177,0.0187,0.0233,0.0234,0.0362,0.0315,0,0,0,0,0,0,0,0,0,0,0.0264,0.0234,0.0177,0.0177,0.0187,0.0233,0.0234,0.0312,0.0318,0.0353,0,0.0348,0,0.0347,0.0371,0.0372,0,0,0,0.021,0.0229,0.0239,0.0177,0.0187,0.0233,0.0219,0.0315,0.0322,0.0361,0.035,0.0354,0.0349,0.0372,0.0373,0.0455,0.0455,0,0,0.0207,0.0195,0.0234,0.0242,0.0185,0.0217,0.022,0.0318,0.0322,0.035,0.0357,0.0351,0.0373,0.0374,0.0455,0.0455,0,0,0,0.0184,0.0193,0.02,0.0238,0.0234,0.0218,0.0221,0.0318,0.0319,0.0358,0.0353,0.0373,0.0375,0.0455,0.0455,0.036,0,0,0,0.0184,0.0178,0.0198,0.0193,0.0231,0.0265,0.0219,0.0313,0.0323,0.0352,0.0373,0.0376,0.0455,0.0455,0.0362,0.0301,0,0,0,0.0178,0.0177,0.0177,0.0191,0.02,0.0263,0.0271,0.0315,0.0319,0.0372,0.0376,0.0455,0.0455,0.0365,0.0306,0.0302,0,0,0,0.0172,0.0141,0.0177,0.014,0.0199,0.0205,0.027,0.029,0.0326,0.0374,0.0455,0.0455,0.0365,0.0309,0.0305,0.0241,0.0224,0,0,0.0124,0.0135,0.0111,0.0142,0.0109,0.0201,0.0204,0.0279,0.0345,0.0432,0.0434,0.0361,0.0306,0.0303,0.0242,0.0225,0,0,0,0.0088,0.0066,0.0063,0.0054,0.0085,0.0124,0.0207,0.0262,0.0336,0.0362,0.0389,0.0357,0.0358,0.0326,0.0313,0.0455,0.0455,0.0455,0.0455,0.0013,0.0013,-0.0038,-0.0029,-0.0008,0.0082,0.013,0.0228,0.0295,0.0318,0.03,0.0257,0.0222,0.0212,0.0336,0.0336,0.0336,0.0335,0.0335,-0.0092,-0.0137,-0.0121,-0.0176,-0.0114,-0.0091,0.005,0.0116,0.0202,0.0256,0.0262,0.0252,0.0191,0.0328,0.033,0.0331,0.0331,0.0332,0.0332,-0.0153,-0.0182,-0.0216,-0.0289,-0.0297,-0.022,-0.0199,-0.006,0.0088,0.0102,0.0109,0.0111,0.019,0.0111,0.0111,0.0111,0.011,0.011,0.011,-0.0214,-0.0249,-0.0364,-0.0421,-0.047,-0.0476,-0.035,-0.0289,-0.0138,-0.0006,-0.0005,0.0182,0.019,0.018,0.0105,0.0106,0.0107,0.0107,0.0108,-0.0334,-0.0356,-0.0519,-0.0601,-0.0704,-0.0722,-0.0612,-0.048,-0.0362,-0.0301,-0.0038,-0.0033,-0.0003,0.0009,-0.0003,-0.0121,-0.0121,-0.0121,-0.0121,-0.0425,-0.0446,-0.0686,-0.0822,-0.0893,-0.0839,-0.0811,-0.0608,-0.035,-0.0171,-0.0169,-0.0138,-0.0129,-0.0102,-0.0088,-0.0099,-0.0242,-0.0242,-0.0242,-0.0546,-0.0594,-0.0786,-0.091,-0.0982,-0.0942,-0.0896,-0.0636,-0.0284,-0.0242,-0.0136,-0.0139,-0.0086,-0.0075,-0.0021,-0.0003,-0.0017,0,0]}],[{"header":{"parameterUnit":"m.s-1","parameterCategory":2,"la1":30.2992,"la2":30.254,"lo1":-89.0895,"lo2":-89.0443,"dy":0.0025,"dx":0.0025,"nx":19,"ny":19,"refTime":"2026-03-25T09:00:00:Z","depth":"4","parameterNumber":2,"parameterNumberName":"U-component_of_CURRENTS"},"data":[0,0,0,-0.1179,-0.1182,-0.1317,-0.1318,-0.1423,-0.1424,0,0,0,0,0,0,0,0,0,0,0,-0.1134,-0.1135,-0.1179,-0.1182,-0.1317,-0.1318,-0.1423,-0.1424,0,0,0,0,0,0,0,0,0,0,0,-0.1134,-0.1135,-0.1136,-0.1183,-0.1317,-0.1318,-0.1423,-0.1339,0,0,0,0,0,0,0,0,0,0,-0.1216,-0.1183,-0.1135,-0.1136,-0.1183,-0.1317,-0.1318,-0.1335,-0.1344,-0.1342,0,-0.1368,0,-0.1395,-0.1429,-0.1429,0,0,0,-0.1185,-0.1176,-0.1212,-0.1137,-0.1185,-0.1316,-0.1257,-0.1341,-0.135,-0.1353,-0.137,-0.1374,-0.1397,-0.143,-0.143,-0.153,-0.1531,0,0,-0.1178,-0.1158,-0.1206,-0.1218,-0.1226,-0.1253,-0.1261,-0.1347,-0.1357,-0.137,-0.1377,-0.1399,-0.143,-0.1431,-0.153,-0.153,0,0,0,-0.1154,-0.1152,-0.1188,-0.1213,-0.1242,-0.1257,-0.1266,-0.1354,-0.1366,-0.1379,-0.14,-0.1431,-0.1432,-0.1529,-0.153,-0.1553,0,0,0,-0.115,-0.1139,-0.1185,-0.1174,-0.1241,-0.1309,-0.1271,-0.1361,-0.1371,-0.14,-0.1431,-0.1432,-0.1528,-0.1529,-0.1551,-0.1537,0,0,0,-0.1127,-0.1136,-0.1154,-0.1173,-0.123,-0.1308,-0.1326,-0.1364,-0.1384,-0.143,-0.1433,-0.1528,-0.1529,-0.1549,-0.1535,-0.1579,0,0,0,-0.1099,-0.1126,-0.1153,-0.1197,-0.1229,-0.1308,-0.1326,-0.1393,-0.1434,-0.1431,-0.1529,-0.153,-0.1549,-0.1534,-0.1578,-0.1405,0,0,0,-0.1113,-0.1128,-0.1154,-0.1181,-0.1249,-0.129,-0.137,-0.1431,-0.145,-0.1494,-0.1498,-0.1551,-0.1535,-0.1579,-0.1478,0,0,0,0,-0.1145,-0.1161,-0.1187,-0.1238,-0.1299,-0.1362,-0.1426,-0.146,-0.1527,-0.1481,-0.157,-0.1558,-0.1586,-0.1481,-0.1536,-0.1535,-0.1535,-0.1535,-0.1535,-0.1121,-0.1165,-0.1209,-0.127,-0.1327,-0.1421,-0.1476,-0.1534,-0.1551,-0.1589,-0.1592,-0.1656,-0.1548,-0.1621,-0.1621,-0.1621,-0.1621,-0.1621,-0.1621,-0.1123,-0.114,-0.1215,-0.1272,-0.1352,-0.1424,-0.1531,-0.1568,-0.1643,-0.1634,-0.1661,-0.1529,-0.1624,-0.1624,-0.1623,-0.1623,-0.1623,-0.1622,-0.1622,-0.1081,-0.1094,-0.1149,-0.1229,-0.1321,-0.1424,-0.1504,-0.1587,-0.1652,-0.1681,-0.1593,-0.1677,-0.1659,-0.1711,-0.1712,-0.1712,-0.1712,-0.1712,-0.1712,-0.1003,-0.1059,-0.1084,-0.1181,-0.123,-0.1328,-0.1486,-0.1547,-0.1643,-0.1589,-0.1693,-0.1686,-0.1683,-0.1665,-0.1714,-0.1714,-0.1714,-0.1713,-0.1713,-0.0931,-0.0953,-0.0973,-0.1014,-0.1123,-0.1185,-0.1374,-0.1481,-0.1534,-0.1539,-0.1552,-0.156,-0.1535,-0.1536,-0.1511,-0.1517,-0.1515,-0.1513,0,-0.0853,-0.0875,-0.0867,-0.0892,-0.0943,-0.1088,-0.1152,-0.1273,-0.1376,-0.1319,-0.1506,-0.1514,-0.152,-0.1486,-0.1484,-0.1449,0,0,0,-0.079,-0.0793,-0.0751,-0.0789,-0.0842,-0.0985,-0.1157,-0.1163,-0.1362,-0.1398,-0.1462,-0.1475,-0.1632,-0.1721,-0.1702,-0.1698,-0.1668,0,0]},{"header":{"parameterUnit":"m.s-1","parameterCategory":2,"la1":30.2992,"la2":30.254,"lo1":-89.0895,"lo2":-89.0443,"dy":0.0025,"dx":0.0025,"nx":19,"ny":19,"refTime":"2026-03-25T09:00:00:Z","depth":"4","parameterNumber":3,"parameterNumberName":"V-component_of_CURRENTS"},"data":[0,0,0,0.0087,0.0088,0.0107,0.0108,0.0134,0.0134,0,0,0,0,0,0,0,0,0,0,0,0.0081,0.0081,0.0087,0.0088,0.0107,0.0108,0.0134,0.0134,0,0,0,0,0,0,0,0,0,0,0,0.0081,0.0081,0.0081,0.0088,0.0107,0.0108,0.0134,0.012,0,0,0,0,0,0,0,0,0,0,0.0101,0.0094,0.0081,0.0081,0.0088,0.0107,0.0108,0.0119,0.0121,0.0124,0,0.0125,0,0.0128,0.0136,0.0136,0,0,0,0.0092,0.0093,0.0096,0.0081,0.0088,0.0107,0.01,0.012,0.0122,0.0126,0.0125,0.0126,0.0128,0.0136,0.0136,0.014,0.014,0,0,0.0091,0.0088,0.0095,0.0097,0.009,0.0099,0.01,0.0121,0.0123,0.0125,0.0127,0.0129,0.0136,0.0136,0.014,0.014,0,0,0,0.0085,0.0087,0.009,0.0096,0.0099,0.01,0.0101,0.0122,0.0122,0.0127,0.0129,0.0136,0.0136,0.014,0.014,0.0086,0,0,0,0.0084,0.0083,0.0089,0.0088,0.0098,0.0111,0.0101,0.0121,0.0123,0.0129,0.0136,0.0136,0.014,0.014,0.0087,0.0033,0,0,0,0.0081,0.0083,0.0084,0.0088,0.0094,0.011,0.0112,0.0122,0.0124,0.0136,0.0136,0.014,0.014,0.0089,0.0037,0.0024,0,0,0,0.0079,0.0061,0.0083,0.0061,0.0094,0.0076,0.0112,0.0109,0.0114,0.0136,0.014,0.014,0.0089,0.004,0.0026,-0.0003,0,0,0,0.005,0.0058,0.0042,0.0061,0.0025,0.0074,0.0048,0.0077,0.0114,0.0134,0.0135,0.0087,0.0038,0.0024,-0.0018,0,0,0,0,0.0027,0.0013,0.0006,-0.0006,-0.0003,-0.0008,0.0031,0.0058,0.0087,0.0116,0.0097,0.0067,0.006,0.0051,0.0138,0.0138,0.0139,0.0139,0.0139,-0.0013,-0.0022,-0.0063,-0.0075,-0.0081,-0.0058,-0.0049,-0.0004,0.0045,0.0058,0.0031,-0.001,-0.0021,0.0058,0.0058,0.0058,0.0057,0.0057,0.0057,-0.0076,-0.0104,-0.0121,-0.0163,-0.0162,-0.017,-0.0127,-0.0084,-0.0055,-0.0007,-0.0009,0.0004,0.0052,0.0053,0.0054,0.0054,0.0055,0.0055,0.0055,-0.0103,-0.0122,-0.0151,-0.0217,-0.0254,-0.0241,-0.027,-0.0208,-0.0125,-0.0131,-0.0114,-0.005,-0.0055,-0.0116,-0.0116,-0.0117,-0.0117,-0.0117,-0.0117,-0.0114,-0.015,-0.0216,-0.0276,-0.0325,-0.0361,-0.0351,-0.033,-0.0246,-0.0202,-0.0148,-0.0068,-0.0063,-0.0064,-0.0122,-0.0121,-0.012,-0.012,-0.012,-0.0146,-0.0162,-0.0263,-0.0327,-0.0447,-0.0476,-0.047,-0.0411,-0.039,-0.0331,-0.0223,-0.0216,-0.0202,-0.0193,-0.0199,-0.0299,-0.03,-0.03,0,-0.0159,-0.0178,-0.0314,-0.0432,-0.0537,-0.055,-0.0555,-0.0512,-0.0395,-0.0386,-0.0371,-0.0252,-0.0246,-0.0232,-0.0224,-0.0233,0,0,0,-0.0184,-0.0222,-0.0321,-0.0446,-0.0578,-0.0567,-0.0554,-0.053,-0.0408,-0.0388,-0.0316,-0.0312,-0.0234,-0.0136,-0.0099,-0.0092,-0.0093,0,0]}]]